Location: Newark
(30.0333°N, 31.2167°E)
Time: 20:21:05
(UTC+00:00)

Tiros 1 despin weight - Pass Details

Date: 22 January 2020
Orbit: 594 x 642 km, 48.2° (Epoch: 20 February)

Event Time Altitude Azimuth Distance (km) Brightness Sun altitude
Rises 15:40:59 0° 321° (NW) 2,927 ? -4.5°
Reaches altitude 10° 15:43:40 10° 335° (NNW) 2,023 ? -5.0°
Maximum altitude 15:47:31 25° 30° (NNE) 1,289 ? -5.8°
Drops below altitude 10° 15:51:23 10° 86° (E) 2,026 ? -6.6°
Enters shadow 15:52:20 - 92° (E) 2,334 ? -6.8°
Sets 15:54:04 0° 100° (E) 2,933 - -7.1°
